CZ-6A DEB

Satellite information

Favourite Embed

Satellite Type and Status

DEBRISIN ORBIT

Key statistics

Satellite CZ-6A DEB at a glance.

Uptime

335

Days in orbit

Revolutions

≈ 14.2

Per day

Orbit

LEO

Low Earth Orbit

Inclination

88.5

Latest

Satellite identification and parameters

Extended collection of information and parameters for CZ-6A DEB.

Object identification

Identified? True

Debris? True

Object name: CZ-6A DEB

International designator: 2024-140QZ

Object number (NORAD): 61155

Object ID (CCSDS): 61155

Country: PEOPLES REPUBLIC OF CHINA (PRC)

Current information (Y/N): Y

RCS size: SMALL

Orbital parameters

Period: 101.134 minutes

Inclination: 88.4966 deg

SMA: 7190.473 km

Apoapsis: 889.436 km

Periapsis: 735.24 km

RAAN: 293.8251 deg

Eccentricy: 0.0107222

Argument of periapsis: 156.2311 deg

Mean anomaly: 204.3888 deg

Mean motion: 14.23857642 rev/day

Mean motion (dot): 0.00002907 rev/day2

B* drag term: 0.0011905 1/REarth

Two-line elements (TLE)

Creation date: July 5, 2025, 5:45 p.m.

Reference frame: TEME

Reference center: EARTH

Epoch: July 5, 2025, 8 a.m. UTC

TLE line 0: 0 CZ-6A DEB

TLE line 1: 1 61155U 24140QZ 25186.33334697 .00002907 00000-0 11905-2 0 9995

TLE line 2: 2 61155 88.4966 293.8251 0107222 156.2311 204.3888 14.23857642 45143

Live tracking on map

Real-time ground track for satellite CZ-6A DEB.

In-orbit conjunctions

A list of the most updated potential collisions computed for object CZ-6A DEB.

Target Orbit TCA Probability of collision Miss distance Type
IRS P2 R/B SSO 2025-02-01 17:36:37 0.0002943402 201.0 (m) ROCKET BODY
NOAA 16 DEB SSO 2025-01-31 20:22:04 0.0001225265 818.0 (m) DEBRIS
SSU 3 LEO 2025-01-09 00:28:54 0.0001525751 552.0 (m) PAYLOAD
COSMOS 2251 DEB LEO 2024-12-10 21:21:19 0.0005440141 231.0 (m) DEBRIS
FENGYUN 1C DEB SSO 2024-10-05 02:34:20 0.0001234191 858.0 (m) DEBRIS

Associated space launch

18 Low Earth Orbit communication satellites with Ku, Q and V band payloads for the G60 constellation operated by Shanghai Spacecom Satellite Technology (SSST) with funding backed by the Shanghai local government. Initial constellation will consist of 1296 satellites by 2027 with long term plans to expand it to 12000 satellites.

CZ-6A DEB was lifted into orbit during the mission ‘Long March 6A | G60 Polar Group 01’, on board a Long March 6A space rocket.

The launch took place on Aug. 6, 2024, 6:42 a.m. from Launch Complex 9A.

For more information about the launch, click the button.

Launch to space Long March 6A | G60 Polar Group 01
Long March 6A | G60 Polar Group 01

Agency: N/A

Status: Launch Successful

Launch date: Aug. 6, 2024, 6:42 a.m. UTC

Rocket: Long March 6A

Launch pad: Launch Complex 9A

Location: Taiyuan Satellite Launch Center, People's Republic of China

...

Latest news about this satellite

News about space launch
Brightness of first Chinese broadband constellation satellites alarms astronomers

The first satellites of a Chinese broadband constellation are significantly brighter than those of Western systems, posing a new challenge for astronomers.

News about space launch
Chinese rocket stage breaks up into cloud of more than 700 pieces of space debris

HELSINKI — A Chinese Long March 6A rocket’s upper stage has fragmented into a cloud of over 700 pieces of space debris, adding to concerns about long-term orbital safety. China […]

News about space launch
China's Thousand Sails Megaconstellation Kicks Off with Dangerous Debris Field

China's Thousand Sails Megaconstellation Kicks Off with Dangerous Debris Field


Newsletter sign-up

Weekly statistics, charts and insights to help you stay on top of the space industry.